Location: Plainsburg (historical)
(40.6503°N, 81.6065°W)
Time: 01:18:47
(UTC+00:00)

Daily predictions for brighter satellites

Satellite Brightness Start Highest point End
(mag) Time Altitude Azimuth Time Altitude Azimuth Time Altitude Azimuth
IGS 5A 3.6 01:09:57 10° SSE 01:14:01 58° ENE 01:18:06 10° N
Cosmos 1544 3.0 01:11:37 10° N 01:15:09 87° W 01:18:39 10° S
Landsat 7 4.3 01:11:05 10° SE 01:15:34 46° ENE 01:20:05 10° N
Cosmos 2233 Rocket 4.2 01:10:57 10° S 01:17:16 85° W 01:23:38 10° N
Meteor 2-6 Rocket 4.2 01:12:28 10° S 01:17:51 90° SSW 01:23:23 10° N
Okean-O 3.0 01:14:06 10° S 01:18:30 67° WSW 01:22:55 10° NNW
CSL-04 Rocket 3.9 01:15:31 10° S 01:20:48 75° WSW 01:26:11 10° NNW
Aureole 1 Rocket 3.0 01:18:26 10° S 01:21:27 32° ESE 01:24:12 10° NE
Cosmos 2227 Rocket 2.3 01:20:40 10° NNW 01:26:20 67° ENE 01:31:57 10° SSE
Cosmos 1536 3.7 01:25:51 10° NNE 01:29:30 32° ENE 01:33:08 10° SE
Cosmos 1980 Rocket 2.7 01:27:06 10° S 01:32:16 39° ESE 01:37:29 10° NE
RESURS DK-1 3.8 01:30:22 10° SSE 01:33:14 19° ESE 01:36:07 10° ENE
ASTRO E2 4.4 01:31:34 10° SW 01:34:22 19° S 01:36:57 11° SE
SL-4 R/B 2.5 01:29:49 10° NW 01:34:24 62° NNE 01:38:30 11° ESE
ARGOS Delta rocket 4.4 01:31:59 10° NNE 01:37:19 51° E 01:42:32 10° S
Cosmos 1184 Rocket 3.4 01:35:38 10° SSE 01:38:20 30° E 01:41:02 10° NNE
H-2A R/B 1.9 01:35:29 10° NNE 01:39:35 87° ESE 01:43:42 10° SSW
Cosmos 2369 3.8 01:36:54 10° S 01:42:23 56° ESE 01:47:55 10° NNE
Cosmos 1328 Rocket 3.8 01:39:28 10° SSW 01:43:44 70° W 01:48:05 10° N
Cosmos 1486 Rocket 4.0 01:38:36 10° SSW 01:43:54 85° ESE 01:49:12 10° NNE
IRS-1A Rocket 4.4 01:38:54 10° SSE 01:44:27 62° ENE 01:50:08 10° N
Cosmos 1464 Rocket 4.1 01:40:16 10° SSE 01:46:18 56° E 01:52:18 10° NNE
Cosmos 1697 Rocket 3.0 01:45:16 10° SSW 01:50:54 72° WNW 01:56:35 10° NNE
Cosmos 405 3.0 01:49:45 10° NNW 01:53:10 74° W 01:56:34 10° S
MOS 1 4.3 01:48:46 10° SSE 01:54:25 83° ENE 02:00:06 10° NNW
Cosmos 389 Rocket 2.8 01:51:01 10° N 01:54:25 48° ENE 01:56:49 18° SSE
CZ-4B R/B 1.2 01:53:26 10° N 01:56:38 85° WNW 01:59:45 10° SSW
MetOp-B 4.4 01:56:39 15° SE 02:00:59 53° ENE 02:06:11 10° N
Cosmos 1515 3.8 01:58:13 10° S 02:01:59 77° W 02:05:45 10° N
ATLAS 2AS CENTAUR R/B 3.0 01:54:29 10° SSW 02:02:06 59° ESE 02:09:34 10° NE
Cosmos 2297 Rocket 3.3 01:57:42 10° NW 02:02:57 40° WSW 02:08:11 10° S
Nadezhda 4 Rocket 4.3 01:57:12 10° N 02:03:14 51° ENE 02:07:53 17° SSE
EXPRESS MD2 3.6 02:02:51 10° NW 02:08:49 69° NNE 02:10:54 22° ESE
Helios 1A Rocket 4.0 02:07:25 19° ESE 02:09:20 28° ENE 02:12:48 10° N
Cosmos 1933 Rocket 3.5 02:06:53 10° N 02:11:22 75° E 02:14:37 18° SSE
Cosmos 1340 3.0 02:07:55 10° SSW 02:11:37 65° W 02:15:20 10° N
Cosmos 1503 Rocket 4.0 02:07:58 10° SSW 02:13:14 90° W 02:18:36 10° NNE
ERS-1 Rocket 4.1 02:12:29 18° ESE 02:15:10 29° ENE 02:19:29 10° N
SJ 16-02 1.2 02:16:01 10° S 02:20:21 70° ESE 02:24:43 10° NNE
SL-16 R/B 3.3 02:18:47 22° SE 02:20:29 25° ESE 02:25:01 10° NE
SPOT 1/Viking Rocket 3.8 02:22:07 15° S 02:26:28 67° WSW 02:31:37 10° NNW
Cosmos 1743 3.3 02:23:48 10° NNW 02:27:30 53° W 02:30:11 17° SSW
Timation 2 Rocket 4.1 02:20:58 10° NNW 02:27:37 79° ENE 02:32:04 23° SSE
NOSS 2-1 (E) 4.4 02:29:30 21° ENE 02:29:30 21° ENE 02:30:58 10° ENE
ATLAS 3B R/B 4.0 02:22:53 10° NNW 02:29:24 33° NE 02:35:07 14° E
BREEZE M DEB (TANK) 4.1 02:28:53 10° NW 02:32:59 65° NNE 02:47:28 12° ESE
Cosmos 1346 Rocket 3.7 02:36:32 29° ESE 02:36:54 30° E 02:40:25 10° NNE
Meteor 1-18 Rocket 4.3 02:34:06 22° SSE 02:37:44 59° E 02:43:15 10° NNE
OAO 3 Rocket 4.1 02:36:05 10° WSW 02:40:27 32° SSW 02:41:32 29° S
Cosmos 2278 3.6 02:35:19 10° SSW 02:40:58 89° ESE 02:46:41 10° NNE
Meteor 2-21 4.4 02:36:59 10° N 02:43:07 85° E 02:46:53 25° S
Resurs 01 Rocket 3.1 02:39:24 11° SSW 02:43:10 32° W 02:47:07 10° NNW
Ariane Rocket 3.8 02:40:49 16° S 02:44:41 47° W 02:49:35 10° NNW
Cosmos 2360 Rocket 3.7 02:45:49 18° E 02:45:49 18° E 02:49:02 10° ENE
SPOT 5 3.1 02:43:22 31° SE 02:45:52 66° ENE 02:50:59 10° N
Terra 2.4 02:44:34 31° ESE 02:46:13 43° ENE 02:50:43 10° N
Cosmos 2292 Rocket 3.2 02:45:06 10° N 02:47:45 42° ENE 02:47:45 42° ENE
Cosmos 2082 4.1 02:43:50 10° NNW 02:49:19 57° WSW 02:52:31 25° S
Cosmos 2034 Rocket 4.3 02:43:14 10° SSW 02:49:28 68° W 02:55:49 10° N
Cosmos 921 Rocket 3.6 02:46:16 10° NNW 02:50:40 54° WSW 02:52:48 28° SSW
Cosmos 2263 Rocket 2.1 02:46:16 10° NNW 02:51:53 75° ENE 02:54:16 35° SE
ISS -2.5 02:49:02 10° NW 02:52:09 35° NNE 02:53:04 29° ENE
Cosmos 1378 2.9 02:52:06 52° S 02:52:53 79° E 02:56:33 10° N
CARTOSAT-1 4.2 02:54:34 26° SSW 02:56:42 49° W 03:00:54 10° NNW
Meteor 2-21 Rocket 4.4 02:50:55 10° N 02:57:03 81° E 03:00:06 32° SSE
Cosmos 1869 Rocket 3.8 02:56:59 10° NNW 03:01:25 66° W 03:03:11 35° SSW
Cosmos 2228 Rocket 3.5 02:58:45 23° SSW 03:01:33 63° W 03:06:05 10° N
Cosmos 2344 4.5 03:00:27 10° WSW 03:07:38 47° NW 03:15:01 10° NNE
NOSS 2-1 (C) 2.9 03:07:58 56° WSW 03:08:31 73° WNW 03:11:42 10° NNE
Meteor 2-16 Rocket 4.4 03:02:39 10° N 03:08:51 85° E 03:11:31 36° S
Cosmos 2279 Rocket 4.2 03:07:07 37° SE 03:09:12 52° E 03:15:13 10° NNE
Cosmos 2227 Rocket 4.5 03:06:19 10° WNW 03:09:44 16° W 03:13:08 10° SW
RESURS DK-1 3.9 03:07:08 10° SW 03:10:56 35° WNW 03:14:45 10° N
Cosmos 482 Debris 4.4 03:07:55 10° NW 03:11:07 67° NE 03:11:58 51° E
SL-4 R/B 3.6 03:10:05 10° WNW 03:13:36 23° SW 03:13:57 23° SW
Cosmos 1980 Rocket 4.0 03:11:24 10° WSW 03:16:19 30° WNW 03:21:17 10° N
SL-24 R/B - RUBIN 2 3.7 03:12:52 10° NNW 03:17:16 66° NE 03:18:06 54° ESE
Spot 2 Rocket 3.8 03:16:25 36° SSW 03:18:19 59° W 03:23:18 10° NNW
NOSS 2-1 (D) 3.5 03:18:12 40° WSW 03:18:59 53° NW 03:22:06 10° NNE
ATLAS CENTAUR R/B 4.0 03:20:20 10° N 03:23:17 16° NE 03:25:48 11° ENE
Cosmos 1707 Rocket 3.8 03:22:35 44° SSW 03:23:51 68° W 03:28:15 10° N
ARIANE 5 R/B 2.5 03:23:46 65° SSE 03:24:26 86° ENE 03:28:58 10° NNW
Cosmos 2322 Rocket 2.1 03:23:14 48° SSE 03:24:35 63° ESE 03:30:08 10° NNE
USA 215 3.6 03:19:07 10° ENE 03:25:13 40° SE 03:25:34 40° SE
BREEZE-M DEB (TANK) 3.0 03:23:00 10° NW 03:25:26 43° NNE 03:26:20 36° ENE
Cosmos 1733 4.4 03:23:03 10° NNE 03:25:54 31° ENE 03:25:54 31° ENE
Cosmos 2333 Rocket 3.6 03:31:12 23° E 03:31:12 23° E 03:34:40 10° NE
Cosmos 1844 Rocket 3.7 03:26:15 10° N 03:31:17 33° ENE 03:32:53 28° E
Meteor 2-4 Rocket 4.2 03:28:29 25° SSW 03:31:50 60° WNW 03:37:26 10° N
Cosmos 1975 3.6 03:31:57 10° NNW 03:35:49 44° W 03:36:17 42° WSW
Cosmos 44 Rocket 3.1 03:31:09 10° NW 03:35:51 72° WSW 03:36:16 67° SSW
Meteor 1-4 Rocket 3.6 03:33:04 10° N 03:35:33 36° NE 03:35:33 36° NE
Cosmos 2180 Rocket 4.4 03:35:27 49° SSE 03:36:59 66° E 03:43:04 10° NNE
CSL-04 DEB 4.3 03:34:17 10° N 03:38:16 77° WNW 03:38:25 75° WSW
Cosmos 2219 Rocket 3.6 03:49:49 23° E 03:49:49 23° E 03:53:11 10° NE
SAR-Lupe-4 4.3 03:47:26 10° N 03:50:31 52° NW 03:50:31 52° NW
ATLAS 2AS CENTAUR R/B 4.3 03:46:20 10° WSW 03:53:26 37° NW 04:00:21 10° NNE
ERS-1 Rocket 4.2 03:52:27 27° SW 03:53:51 32° W 03:58:20 10° NNW
Cosmos 1733 Rocket 3.6 03:51:29 10° NNW 03:55:48 49° W 03:56:04 49° WSW
Cosmos 1844 4.4 03:50:15 10° NNW 03:55:48 44° ENE 03:57:04 39° E
SJ 16-02 4.3 03:57:51 10° WNW 03:59:24 12° WNW 04:00:58 10° NW
Cosmos 1726 3.6 03:59:59 10° N 04:02:17 30° NE 04:02:17 30° NE
SL-16 R/B 3.1 04:00:33 19° SW 04:04:16 45° WNW 04:09:44 10° NNE
Cosmos 2237 4.5 04:04:12 39° SW 04:06:19 65° WNW 04:12:01 10° NNE
Cosmos 1908 Rocket 3.8 04:03:25 10° N 04:07:12 63° NNE 04:07:12 63° NNE
Geosat 3.8 04:09:12 77° SSW 04:09:24 79° WSW 04:14:27 10° NNW
Meteor 2-10 3.8 04:06:27 10° N 04:11:42 86° E 04:11:51 84° SE
Cosmos 2242 Rocket 4.1 04:13:47 53° NE 04:13:47 53° NE 04:17:33 10° NNE
ALOS 2 4.0 04:14:10 29° ENE 04:14:10 29° ENE 04:17:41 10° N
Cosmos 1655 Rocket 3.8 04:11:47 10° N 04:18:03 82° E 04:18:59 66° SSE
ATLAS 3B R/B 3.0 04:13:17 10° NW 04:20:39 66° WSW 04:22:21 52° S
COSMOS 2428 3.7 04:23:47 32° E 04:23:47 32° E 04:27:56 10° NE
Cosmos 1937 Rocket 3.4 04:23:07 88° ESE 04:23:07 88° ESE 04:28:26 10° NNE
Cosmos 923 Rocket 4.0 04:18:02 10° NNW 04:23:23 75° WSW 04:23:29 75° WSW
CZ-4C R/B 4.1 04:17:28 10° NNW 04:24:07 38° NE 04:29:38 18° ESE
Terra 3.7 04:23:27 19° WSW 04:24:09 19° W 04:27:33 10° NW
Meteor 1-15 Rocket 4.1 04:21:49 10° N 04:27:31 86° E 04:27:54 78° SSE
Cosmos 2360 Rocket 2.5 04:27:32 49° WSW 04:28:49 62° WNW 04:34:26 10° NNE
ISS -0.7 04:25:54 10° WNW 04:25:58 10° WNW 04:25:58 10° WNW
Cosmos 1867 4.3 04:35:35 40° E 04:35:35 40° E 04:39:36 10° NE
Cosmos 2333 4.0 04:34:43 85° S 04:34:52 88° ESE 04:40:32 10° NNE
Cosmos 2263 Rocket 4.3 04:32:17 10° WNW 04:35:02 14° W 04:35:57 13° WSW
Spot 4 4.0 04:43:39 71° NW 04:43:39 71° NW 04:47:59 10° NNW
Cosmos 2112 Rocket 4.0 04:38:38 10° NNW 04:43:44 75° WNW 04:43:44 75° WNW
Okean 1-7 4.1 04:44:37 39° WNW 04:44:37 39° WNW 04:48:25 10° N
Cosmos 1680 Rocket 3.7 04:39:40 10° NNW 04:44:38 63° W 04:44:38 63° W
Cosmos 2266 Rocket 4.2 04:42:48 10° NNW 04:48:51 55° W 04:49:37 52° WSW
Cosmos 2278 Rocket 4.1 04:47:25 10° N 04:51:47 22° NE 04:54:16 17° E
Iridium 4 Rocket 4.0 04:48:33 10° NNW 04:52:48 47° WNW 04:52:48 47° WNW
Cosmos 1818 3.5 04:49:27 10° NW 04:54:36 76° WNW 04:54:36 76° WNW
Meteor 2-17 Rocket 4.3 04:51:10 10° N 04:57:22 82° E 04:57:51 75° SE
H-2A R/B 4.4 04:54:54 10° N 04:57:59 45° NNW 04:57:59 45° NNW
Cosmos 1461 4.2 04:55:27 10° NNW 04:58:53 36° NE 04:58:53 36° NE
Meteor 1-22 Rocket 4.3 04:53:44 10° NNW 04:59:43 76° W 05:00:04 73° SW
ATLAS CENTAUR R/B 2.2 04:57:56 10° NNW 05:01:48 56° NW 05:01:48 56° NW
USA 215 3.7 05:01:55 10° NE 05:08:21 60° NW 05:12:52 21° WSW
Cosmos 2322 Rocket 4.3 05:04:59 10° W 05:09:05 20° NW 05:13:13 10° N
ADEOS Rocket 2.7 05:13:15 78° ESE 05:13:29 81° ENE 05:19:26 10° NNW
Cosmos 2322 3.8 05:13:04 65° W 05:13:30 68° WNW 05:19:13 10° NNE
Cosmos 2333 Rocket 2.8 05:13:10 43° W 05:14:11 48° WNW 05:19:41 10° NNE
Cosmos 1844 Rocket 3.7 05:10:08 10° NW 05:14:32 33° W 05:14:32 33° W
ASTEX 1 3.9 05:12:21 10° NNE 05:16:31 51° ENE 05:16:31 51° ENE
Cosmos 1707 4.3 05:20:46 33° NNW 05:20:46 33° NNW 05:23:08 10° N
Cosmos 2221 Rocket 4.4 05:20:54 49° NNE 05:20:54 49° NNE 05:24:11 10° N
ERS-2 4.1 05:22:26 10° N 05:24:27 26° NNW 05:24:27 26° NNW
SL-08 ROCKET BODY 4.4 05:23:35 10° NNW 05:29:23 63° W 05:29:27 63° W
Cosmos 2219 Rocket 2.9 05:31:30 41° W 05:32:21 44° WNW 05:37:43 10° NNE
Cosmos 2150 Rocket 4.4 05:33:55 53° ENE 05:33:55 53° ENE 05:38:19 10° NNE
Cosmos 494 Rocket 4.2 05:31:51 10° NNW 05:36:47 62° ENE 05:36:47 62° ENE
Cosmos 1048 Rocket 4.1 05:33:07 10° NNW 05:38:01 69° NE 05:38:01 69° NE
S3M 4.0 05:38:12 64° SE 05:38:49 68° E 05:45:09 10° NNE
USA 267 3.3 05:38:54 36° ESE 05:41:50 74° NE 05:48:23 10° NW
Cosmos 1553 Rocket 3.9 05:42:09 68° WSW 05:42:38 71° W 05:48:49 10° N
Cosmos 1125 Rocket 3.6 05:44:18 69° ENE 05:44:18 69° ENE 05:49:00 10° NNE
CZ-2D R/B 4.3 05:41:33 10° ENE 05:44:09 14° E 05:44:50 13° E
Meteor 1-16 Rocket 4.3 05:38:55 10° N 05:44:51 72° E 05:45:16 69° ESE
Cosmos 405 Rocket 4.3 05:48:24 33° N 05:48:24 33° N 05:50:36 10° N
USA 305 4.1 05:49:28 39° NNE 05:49:28 39° NNE 05:52:14 10° NE
USA 229 DEB 4.1 05:41:48 10° NNW 05:49:14 71° NE 05:52:46 36° SE
USA 229 4.1 05:41:54 10° NNW 05:49:20 71° NE 05:52:54 35° SE
Cosmos 1626 4.0 05:55:00 27° NNW 05:55:00 27° NNW 05:56:57 10° N
Cosmos 2151 Rocket 4.5 05:50:13 10° NNW 05:53:24 43° NW 05:53:24 43° NW
PSLV R/B 4.3 05:51:04 10° N 05:54:43 51° NW 05:54:43 51° NW
Cosmos 1437 Rocket 4.3 05:52:34 10° N 05:54:47 33° N 05:54:47 33° N
NOSS 2-2 (E) 4.5 05:51:46 10° NNW 05:57:17 83° NE 05:58:58 55° SE
NOSS 0 Rocket 3.8 05:56:55 72° SW 05:57:34 81° WNW 06:03:52 10° NNE
Okean 2 Rocket 4.2 05:54:13 10° NNW 05:57:28 38° NW 05:57:28 38° NW
Lacrosse 5 rocket 3.9 06:01:10 12° ENE 06:01:10 12° ENE 06:01:31 10° ENE
Cosmos 2237 Rocket 2.1 06:02:09 82° SE 06:02:13 83° ESE 06:07:58 10° NNE
Cosmos 332 Rocket 4.4 06:04:18 49° ENE 06:04:18 49° ENE 06:08:19 10° NNE
COSMOS 2428 3.8 06:05:45 31° W 06:07:03 34° WNW 06:12:13 10° N
Cosmos 1953 3.5 06:04:27 10° N 06:07:09 41° N 06:07:09 41° N
Resurs 1-4 Rocket 3.6 06:05:21 10° NE 06:09:36 24° E 06:10:14 24° ESE
GP-B 3.8 06:07:54 10° NNE 06:11:45 47° ENE 06:11:45 47° ENE
CZ-4C R/B 3.1 06:05:40 10° NW 06:13:09 62° WSW 06:14:45 53° SSW
NOSS 3-1 (A) 4.1 06:08:13 10° NW 06:15:57 70° WSW 06:18:26 49° S
Cosmos 2298 Rocket 4.4 06:16:30 53° WNW 06:16:42 54° WNW 06:21:54 10° N
Cosmos 1943 Rocket 3.8 06:14:14 10° N 06:19:12 30° ENE 06:23:41 12° ESE
Meteor 2-12 Rocket 4.2 06:14:10 10° N 06:20:15 86° W 06:20:58 71° S
ADEOS II 4.1 06:19:37 10° NE 06:22:53 17° E 06:24:27 15° ESE
Cosmos 1745 Rocket 4.0 06:17:03 10° NNW 06:23:07 58° W 06:23:37 56° WSW
Thor Agena Rocket 3.6 06:20:28 10° NNE 06:25:45 66° ESE 06:26:03 64° ESE
USA 306 4.1 06:29:56 34° NW 06:30:16 35° NNW 06:34:07 10° NE
NOSS 2-2 (D) 4.4 06:27:49 10° NW 06:33:18 71° WSW 06:34:33 58° S
Okean 1 Rocket 4.1 06:29:49 10° NNW 06:33:02 37° WNW 06:33:02 37° WNW
USA 307 4.0 06:34:07 36° NW 06:34:24 37° NNW 06:38:19 10° NE
Cosmos 2278 Rocket 2.3 06:30:42 10° NNW 06:36:05 57° W 06:36:05 57° W
Cosmos 371 Rocket 4.4 06:41:23 32° WNW 06:41:41 33° WNW 06:46:05 10° N
Lacrosse 5 1.7 06:43:42 85° SSW 06:43:51 87° SE 06:48:58 10° NE
USA 32 4.3 06:44:30 53° W 06:44:40 53° W 06:49:50 10° N
Cosmos 2084 Rocket 4.0 06:45:29 49° N 06:45:29 49° N 06:48:28 10° NNE
NPP 4.4 06:39:47 10° NNE 06:44:54 42° E 06:46:05 37° SE
ATLAS 5 CENTAUR R/B 3.1 06:38:15 10° NW 06:45:39 44° W 06:45:39 44° W
Cosmos 304 Rocket 4.4 06:49:36 43° WNW 06:49:47 43° WNW 06:54:24 10° N
SL-16 R/B 2.2 06:49:47 58° SSE 06:50:39 68° ESE 06:56:19 10° NNE
Cosmos 1455 3.6 06:49:13 10° NNE 06:52:32 30° ENE 06:52:49 30° E
SME Rocket 3.0 06:58:11 84° WNW 06:58:11 84° WNW 07:02:57 10° NNW
Cosmos 1269 Rocket 4.0 06:55:04 10° NNW 07:00:22 81° ENE 07:01:45 51° SSE
Meteor 2-10 Rocket 3.7 06:55:25 10° NNW 07:00:53 56° W 07:01:19 54° WSW
SL-16 R/B 2.9 07:01:09 24° SE 07:04:54 63° ENE 07:11:03 10° N
MOZ.5/SAFIR/RUBIN 5/SL-8 4.0 07:09:27 51° W 07:09:27 51° W 07:13:54 10° NNW
Cosmos 2074 Rocket 4.1 07:03:49 10° N 07:10:08 74° E 07:13:08 33° SSE
Cosmos 1455 Rocket 3.4 07:06:47 10° NNW 07:10:49 51° WNW 07:10:49 51° WNW
Meteor 1-24 Rocket 3.7 07:14:10 53° SW 07:15:24 69° W 07:20:52 10° N
SAR-Lupe-2 4.2 07:11:57 10° NNE 07:15:21 49° E 07:15:21 49° E
Cosmos 1536 Rocket 3.9 07:16:40 50° SE 07:17:29 59° E 07:21:48 10° NNE
COSMOS 2455 2.9 07:18:09 45° S 07:20:02 70° ESE 07:26:02 10° NNE
Cosmos 292 Rocket 4.0 07:20:54 48° SSE 07:21:59 61° ESE 07:26:43 10° NNE
CZ-2D R/B 2.1 07:19:23 10° N 07:24:44 72° WNW 07:26:09 48° SW
USA 267 4.1 07:26:11 29° WSW 07:26:11 29° WSW 07:30:48 10° WNW
Cosmos 1975 Rocket 4.2 07:25:12 29° WNW 07:25:16 30° WNW 07:29:12 10° NNW
Cosmos 2184 Rocket 3.9 07:20:11 10° N 07:26:28 86° W 07:29:21 34° S
CRYOSAT 2 4.4 07:25:17 40° SSE 07:27:02 74° E 07:31:55 10° N
Cosmos 1025 Rocket 3.9 07:27:37 33° WNW 07:27:40 33° WNW 07:31:36 10° N
MSX 4.4 07:31:21 10° NNE 07:36:59 52° E 07:40:20 24° SSE
Lacrosse 5 rocket 1.9 07:36:40 39° WNW 07:37:23 44° NW 07:41:16 10° NE
YAOGAN 11 4.0 07:40:01 43° S 07:41:26 82° WSW 07:45:57 10° NNW
OAO 2 Rocket 4.4 07:42:53 27° SSE 07:42:53 27° SSE 07:46:56 10° ESE
Cosmos 1943 3.9 07:41:37 26° SSE 07:44:33 48° ESE 07:50:00 10° NE
Cosmos 1703 3.2 07:45:42 50° S 07:46:39 79° E 07:50:35 10° N
Cosmos 2237 Rocket 4.3 07:43:57 11° W 07:47:01 17° NW 07:50:34 10° N
Resurs 1-4 Rocket 2.8 07:44:37 10° N 07:49:32 41° WNW 07:51:19 31° WSW
UNK 3.7 07:48:51 42° SSW 07:50:10 61° W 07:54:44 10° NNW
EO 1 Del DPAF 2.9 07:48:28 10° NNE 07:52:00 89° W 07:52:35 60° SSW
Helios 1A 3.0 07:51:33 28° SSE 07:53:41 84° E 07:57:56 10° NNW
NOSS 3-3 (A) 3.9 07:52:29 32° SSW 07:55:08 68° ESE 08:01:21 10° NE
NOSS 3-3 (C) 3.9 07:52:35 32° SSW 07:55:14 67° ESE 08:01:26 10° NE
Nadezhda 1 Rocket 4.1 07:53:45 31° SSW 07:56:56 66° W 08:03:13 10° N
Cosmos 1544 Rocket 4.4 07:53:40 10° NNW 07:57:33 31° W 07:57:54 30° W
Lacrosse 4 Rocket 4.1 07:57:22 10° SE 07:58:54 12° ESE 08:00:27 10° E
Cosmos 614 Rocket 3.9 07:56:03 10° NNW 08:01:13 66° WSW 08:04:35 22° S
IDEFIX/ARIANE 42P 2.6 07:56:21 10° N 08:01:38 74° WNW 08:04:17 30° SSW
ADEOS II 2.2 07:57:46 10° N 08:02:56 59° WNW 08:05:22 30° SW
Cosmos 1943 Rocket 2.6 07:57:45 10° NW 08:03:02 40° WSW 08:05:08 29° SSW
BREEZE-M DEB (TANK) 4.2 08:02:27 21° SSE 08:03:32 25° ESE 08:08:16 10° ENE
COSMOS 2441 4.5 08:01:17 10° NNE 08:06:09 74° ESE 08:09:05 24° S
Meteor 1-28 Rocket 3.2 08:06:01 41° SSW 08:06:58 55° W 08:10:38 10° NNW
Cosmos 2297 4.0 08:05:05 10° NW 08:10:32 46° WSW 08:13:59 21° SSW
MOS 1 Rocket 3.6 08:10:22 33° SW 08:11:24 38° W 08:15:26 10° NNW
ALOS 4.2 08:07:44 10° NE 08:11:33 24° E 08:15:19 10° SSE
IRS-1D 3.6 08:07:24 10° NNE 08:12:46 83° ESE 08:16:21 21° S
Cosmos 2251 Rocket 3.4 08:09:31 10° NNW 08:14:48 83° WSW 08:20:06 10° SSE
Cosmos 1892 Rocket 4.0 08:13:50 16° S 08:17:13 60° E 08:21:38 10° NNE
Cosmos 1726 Rocket 3.8 08:17:41 10° N 08:22:06 70° E 08:26:27 10° SSE
Cosmos 2366 rocket 4.4 08:20:57 10° N 08:27:04 65° E 08:33:12 10° SSE
Lacrosse 5 3.7 08:23:20 10° W 08:27:23 23° NNW 08:31:28 10° NNE
Cosmos 1455 4.1 08:25:34 10° NW 08:27:34 15° W 08:27:34 15° W
CZ-2C R/B 3.7 08:25:01 10° NNE 08:29:46 38° E 08:34:21 10° SSE
Cosmos 2341 Rocket 4.0 08:25:01 10° N 08:31:25 81° W 08:37:47 10° S
Cosmos 2369 Rocket 2.2 08:27:51 10° NNW 08:33:21 61° WSW 08:38:50 10° S
SL-8 Rocket 4.1 08:27:13 10° N 08:33:36 88° E 08:39:54 10° S
Cosmos 1656 Rocket 3.5 08:29:39 10° NNW 08:35:04 75° WSW 08:40:28 10° SSE
SL-16 R/B 4.0 08:31:39 11° W 08:35:19 19° NW 08:39:21 10° N
Cosmos 1271 Rocket 4.0 08:34:04 10° NW 08:37:07 23° W 08:38:06 21° WSW
Cosmos 2228 3.9 08:39:35 10° NNW 08:43:27 31° W 08:45:54 18° SW
BREEZE-M DEB (TANK) 2.8 08:42:55 15° WSW 08:46:44 63° NNW 08:49:08 10° NE
SL-16 R/B 3.8 08:46:14 16° SW 08:48:54 20° W 08:53:23 10° NW
Cosmos 1420 Rocket 4.2 08:44:06 10° S 08:49:13 69° ESE 08:54:24 10° NNE
SL-24 DEB 4.2 08:52:02 10° S 08:56:46 72° W 09:01:29 10° N
Cosmos 407 Rocket 3.5 08:52:21 10° NNW 08:57:35 61° WSW 09:02:44 10° S
Cosmos 1603 4.2 08:53:54 15° SW 08:58:26 48° WNW 09:03:55 10° NNE
Cosmos 1371 Rocket 4.0 08:55:16 12° SSW 08:59:57 68° WNW 09:05:08 10° NNE
Cosmos 2058 Rocket 3.0 08:56:02 10° N 09:00:25 77° W 09:04:45 10° S
Cosmos 1626 Rocket 4.1 08:57:06 10° S 09:01:24 59° E 09:05:43 10° NNE
Genesis I 3.2 08:57:41 10° NW 09:01:44 71° WSW 09:05:38 10° SSE
MOS 1-B Rocket 3.8 08:58:52 10° S 09:04:25 63° WSW 09:10:07 10° NNW
Cosmos 1140 Rocket 3.7 08:59:55 10° NNW 09:04:58 49° WSW 09:09:59 10° S
SeaSat 1 3.4 09:01:36 10° NE 09:06:19 44° ESE 09:11:00 10° S
COSMOS 2455 4.4 09:01:53 10° W 09:06:31 23° NW 09:11:11 10° N
GPS 2-04 Rocket1 3.3 09:05:26 14° SW 09:07:58 32° S 09:11:10 10° ESE
Helios 1B rocket 3.0 09:09:27 10° N 09:13:15 40° WNW 09:17:02 10° SW
Intercosmos 25 Rocket 4.3 09:12:48 10° N 09:16:20 56° E 09:21:28 10° SSE
Nadezhda 3 Rocket 4.3 09:10:30 10° S 09:16:46 72° E 09:23:01 10° NNE
Lacrosse 5 rocket 3.9 09:15:45 10° NW 09:17:25 12° NNW 09:19:07 10° N
Cosmos 1633 4.3 09:14:16 10° SSE 09:17:27 32° E 09:20:39 10° NNE
Cosmos 2218 Rocket 4.3 09:11:55 10° NNW 09:17:54 50° W 09:23:56 10° SSW
METEOR-M 4.4 09:15:33 10° NNE 09:20:55 75° ESE 09:26:15 10° S
Cosmos 1825 2.1 09:18:07 10° S 09:21:49 86° W 09:25:34 10° N
Cosmos 1954 Rocket 4.1 09:16:32 10° NNW 09:21:53 86° WSW 09:27:11 10° SSE
CZ-2D R/B 3.5 09:18:25 10° NNE 09:22:25 76° E 09:26:22 10° S
CZ-3 R/B 4.2 08:42:35 10° W 09:26:23 55° SSW 09:37:08 10° ESE
OAO 2 Rocket 3.8 09:22:20 10° WSW 09:27:01 43° S 09:31:40 10° ESE
Cosmos 1758 Rocket 4.3 09:24:05 10° S 09:28:21 55° E 09:32:36 10° NNE
